When you browse on this site, cookies collect data to enhance your experience and personalize the content and advertising you see.
Visit our Privacy Policy to learn more. By continuing to use the site, you agree to this use of cookies and data.
  • In Czech Republic
  • List of Countries
  • For 7 days
  • Water Temperature
  • Weather Map
  • Weather Widgets
  • user-avatar
    Login

    Hourly Weather Maracaibo

    Today, 19 February, Wednesday

    Time Temperature Precipitation Wind Pressure Humidity
    00:00 +29°C° 0 mm 5 mps 752 mmHg 69%
    01:00 +28°C° 0 mm 5 mps 752 mmHg 69%
    02:00 +28°C° 0 mm 4 mps 752 mmHg 70%
    03:00 +28°C° 0 mm 4 mps 752 mmHg 71%
    04:00 +27°C° 0 mm 3 mps 752 mmHg 72%
    05:00 +28°C° 0 mm 3 mps 752 mmHg 71%
    06:00 +28°C° 0 mm 3 mps 753 mmHg 70%
    07:00 +28°C° 0 mm 3 mps 753 mmHg 70%
    08:00 +30°C° 0 mm 3 mps 753 mmHg 63%
    09:00 +33°C° 0 mm 3 mps 754 mmHg 56%
    10:00 +34°C° 0 mm 3 mps 754 mmHg 49%
    11:00 +34°C° 0 mm 3 mps 753 mmHg 50%
    12:00 +34°C° 0 mm 3 mps 752 mmHg 51%
    13:00 +34°C° 0 mm 3 mps 751 mmHg 52%
    14:00 +34°C° 0 mm 5 mps 751 mmHg 54%
    15:00 +34°C° 0 mm 6 mps 751 mmHg 55%
    16:00 +34°C° 0 mm 7 mps 750 mmHg 56%
    17:00 +32°C° 0 mm 7 mps 751 mmHg 61%
    18:00 +30°C° 0 mm 7 mps 751 mmHg 65%
    19:00 +29°C° 0 mm 7 mps 752 mmHg 70%
    20:00 +29°C° 0 mm 7 mps 752 mmHg 70%
    21:00 +29°C° 0 mm 7 mps 753 mmHg 71%
    22:00 +29°C° 0 mm 7 mps 754 mmHg 71%
    23:00 +28°C° 0 mm 6 mps 753 mmHg 71%

    Tomorrow, 20 February, Thursday

    Time Temperature Precipitation Wind Pressure Humidity
    00:00 +28°C° 0 mm 5 mps 753 mmHg 70%
    01:00 +28°C° 0 mm 5 mps 752 mmHg 70%
    02:00 +28°C° 0 mm 4 mps 752 mmHg 71%
    03:00 +27°C° 0 mm 4 mps 752 mmHg 72%
    04:00 +27°C° 0 mm 4 mps 752 mmHg 74%
    05:00 +27°C° 0 mm 4 mps 752 mmHg 73%
    06:00 +27°C° 0 mm 3 mps 753 mmHg 72%
    07:00 +27°C° 0 mm 3 mps 753 mmHg 72%
    08:00 +29°C° 0 mm 3 mps 753 mmHg 65%
    09:00 +31°C° 0 mm 3 mps 754 mmHg 58%
    10:00 +34°C° 0 mm 2 mps 754 mmHg 51%
    11:00 +34°C° 0 mm 3 mps 753 mmHg 50%
    12:00 +35°C° 0 mm 3 mps 752 mmHg 49%
    13:00 +35°C° 0 mm 3 mps 751 mmHg 48%
    14:00 +35°C° 0 mm 4 mps 751 mmHg 49%
    15:00 +34°C° 0 mm 5 mps 750 mmHg 50%
    16:00 +34°C° 0 mm 6 mps 750 mmHg 51%
    17:00 +33°C° 0 mm 6 mps 751 mmHg 57%
    18:00 +30°C° 0 mm 6 mps 751 mmHg 62%
    19:00 +29°C° 0 mm 5 mps 751 mmHg 68%
    20:00 +29°C° 0 mm 6 mps 752 mmHg 70%
    21:00 +28°C° 0 mm 6 mps 752 mmHg 71%
    22:00 +28°C° 0 mm 6 mps 753 mmHg 73%
    23:00 +28°C° 0 mm 5 mps 753 mmHg 73%

    Day after tomorrow, 21 February, Friday

    Time Temperature Precipitation Wind Pressure Humidity
    00:00 +28°C° 0 mm 5 mps 752 mmHg 72%
    01:00 +27°C° 0 mm 4 mps 752 mmHg 72%
    08:00 +29°C° 0 mm 3 mps 754 mmHg 62%
    09:00 +31°C° 0 mm 3 mps 754 mmHg 55%
    10:00 +34°C° 0 mm 2 mps 754 mmHg 48%
    11:00 +34°C° 0 mm 3 mps 754 mmHg 47%
    12:00 +35°C° 0 mm 3 mps 753 mmHg 46%
    13:00 +35°C° 0 mm 3 mps 752 mmHg 45%
    14:00 +35°C° 0 mm 4 mps 751 mmHg 47%
    15:00 +34°C° 0 mm 5 mps 751 mmHg 49%
    16:00 +34°C° 0 mm 6 mps 750 mmHg 51%
    17:00 +33°C° 0 mm 6 mps 751 mmHg 56%
    18:00 +30°C° 0 mm 5 mps 752 mmHg 61%
    19:00 +29°C° 0 mm 5 mps 752 mmHg 66%
    20:00 +29°C° 0 mm 5 mps 753 mmHg 68%
    21:00 +28°C° 0 mm 6 mps 753 mmHg 70%
    22:00 +28°C° 0 mm 6 mps 753 mmHg 73%
    23:00 +27°C° 0 mm 6 mps 753 mmHg 74%

    22 February, Saturday

    Time Temperature Precipitation Wind Pressure Humidity
    00:00 +27°C° 0 mm 6 mps 753 mmHg 76%
    01:00 +27°C° 0 mm 5 mps 753 mmHg 77%
    02:00 +27°C° 0 mm 5 mps 753 mmHg 78%
    03:00 +26°C° 0 mm 5 mps 753 mmHg 79%
    04:00 +26°C° 0 mm 5 mps 753 mmHg 80%
    05:00 +26°C° 0 mm 5 mps 753 mmHg 79%
    06:00 +27°C° 0 mm 5 mps 754 mmHg 77%
    07:00 +27°C° 0 mm 4 mps 754 mmHg 75%
    08:00 +29°C° 0 mm 4 mps 755 mmHg 67%
    09:00 +30°C° 0 mm 4 mps 755 mmHg 58%
    10:00 +33°C° 0 mm 4 mps 755 mmHg 50%
    11:00 +34°C° 0 mm 4 mps 754 mmHg 48%
    12:00 +34°C° 0 mm 4 mps 754 mmHg 46%
    13:00 +35°C° 0 mm 4 mps 753 mmHg 43%
    14:00 +35°C° 0 mm 5 mps 752 mmHg 45%
    15:00 +34°C° 0 mm 5 mps 752 mmHg 46%
    16:00 +34°C° 0 mm 6 mps 751 mmHg 47%
    17:00 +32°C° 0 mm 5 mps 752 mmHg 56%
    18:00 +30°C° 0 mm 5 mps 752 mmHg 65%
    19:00 +28°C° 0 mm 5 mps 753 mmHg 73%
    20:00 +28°C° 0 mm 5 mps 753 mmHg 75%
    21:00 +28°C° 0 mm 5 mps 754 mmHg 77%
    22:00 +27°C° 0 mm 5 mps 754 mmHg 78%
    23:00 +27°C° 0 mm 5 mps 754 mmHg 79%

    23 February, Sunday

    Time Temperature Precipitation Wind Pressure Humidity
    00:00 +27°C° 0 mm 5 mps 754 mmHg 80%
    01:00 +27°C° 0 mm 5 mps 754 mmHg 81%
    02:00 +27°C° 0 mm 4 mps 754 mmHg 81%
    03:00 +26°C° 0 mm 4 mps 753 mmHg 82%
    04:00 +26°C° 0 mm 4 mps 753 mmHg 83%
    05:00 +26°C° 0 mm 4 mps 754 mmHg 81%
    06:00 +27°C° 0 mm 4 mps 754 mmHg 79%
    07:00 +27°C° 0 mm 4 mps 755 mmHg 78%
    08:00 +28°C° 0 mm 4 mps 755 mmHg 71%
    09:00 +30°C° 0 mm 4 mps 755 mmHg 63%
    10:00 +32°C° 0 mm 4 mps 755 mmHg 56%
    11:00 +33°C° 0 mm 4 mps 754 mmHg 51%
    12:00 +34°C° 0 mm 4 mps 753 mmHg 46%
    13:00 +35°C° 0 mm 5 mps 753 mmHg 41%
    14:00 +35°C° 0 mm 5 mps 752 mmHg 42%
    15:00 +34°C° 0 mm 5 mps 752 mmHg 44%
    16:00 +34°C° 0 mm 5 mps 751 mmHg 45%
    17:00 +32°C° 0 mm 5 mps 752 mmHg 54%
    18:00 +30°C° 0 mm 5 mps 752 mmHg 63%
    19:00 +28°C° 0 mm 5 mps 753 mmHg 71%
    20:00 +28°C° 0 mm 5 mps 753 mmHg 71%
    21:00 +28°C° 0 mm 5 mps 754 mmHg 71%
    22:00 +28°C° 0 mm 5 mps 754 mmHg 71%
    23:00 +27°C° 0 mm 5 mps 754 mmHg 73%

    24 February, Monday

    Time Temperature Precipitation Wind Pressure Humidity
    00:00 +27°C° 0 mm 5 mps 754 mmHg 75%
    01:00 +26°C° 0 mm 5 mps 754 mmHg 77%
    02:00 +26°C° 0 mm 5 mps 753 mmHg 78%
    03:00 +26°C° 0 mm 4 mps 753 mmHg 78%
    04:00 +26°C° 0 mm 4 mps 753 mmHg 79%
    05:00 +27°C° 0 mm 4 mps 753 mmHg 76%
    06:00 +27°C° 0 mm 4 mps 754 mmHg 74%
    07:00 +27°C° 0 mm 4 mps 754 mmHg 71%
    08:00 +29°C° 0 mm 4 mps 754 mmHg 63%
    09:00 +31°C° 0 mm 3 mps 755 mmHg 55%
    10:00 +33°C° 0 mm 3 mps 755 mmHg 47%
    11:00 +34°C° 0 mm 3 mps 754 mmHg 45%
    12:00 +35°C° 0 mm 3 mps 753 mmHg 43%
    13:00 +36°C° 0 mm 3 mps 752 mmHg 42%
    14:00 +35°C° 0 mm 3 mps 752 mmHg 43%
    15:00 +35°C° 0 mm 4 mps 751 mmHg 45%
    16:00 +34°C° 0 mm 5 mps 751 mmHg 46%
    17:00 +33°C° 0 mm 5 mps 751 mmHg 54%
    18:00 +30°C° 0 mm 5 mps 752 mmHg 62%
    19:00 +29°C° 0 mm 5 mps 752 mmHg 70%
    20:00 +28°C° 0 mm 5 mps 753 mmHg 72%
    21:00 +28°C° 0 mm 5 mps 753 mmHg 74%
    22:00 +28°C° 0 mm 5 mps 754 mmHg 77%
    23:00 +28°C° 0 mm 5 mps 754 mmHg 78%
    Show more